Location: Newark
(49.8969°N, 3.3422°E)
Time: 15:20:49
(UTC+00:00)

Tiros 1 - Pass Details

Date: 17 May 2021
Orbit: 630 x 664 km, 48.4° (Epoch: 11 June)

Event Time Altitude Azimuth Distance (km) Brightness Sun altitude
Rises 02:41:53 0° 276° (W) 2,991 10.2 -10.3°
Reaches altitude 10° 02:44:15 10° 274° (W) 2,074 9.4 -10.0°
Maximum altitude 02:48:59 65° 193° (SSW) 723 7.2 -9.5°
Drops below altitude 10° 02:53:41 10° 112° (ESE) 2,051 10.0 -9.0°
Sets 02:56:01 0° 110° (ESE) 2,954 10.9 -8.7°
